Showing default

FLOCK 4H 35, 66738

Orbit data source: Space-Track

FLOCK 4H 35, 66738 is a payload satellite owned by Planet (US) in SSO that was launched on Fri, 28 Nov 2025 UTC via an FALCON 9 launch vehicle from the Air Force Western Test Range (AFWTR). Payload-class satellites include a variety of spacecraft equipped with specific instruments for various scientific and technological missions. These include communications satellites like Starlink; space stations such as the ISS; scientific satellites like the Hubble; Earth observation satellites from companies like Planet Labs, Umbra, and HawkEye 360; GPS; miniature CubeSats for education and research; and military/defense satellites.

Loading next visibility...
Identifier
66738, 2025-276CA
Orbit
SSO
Country
Flag of USUS
Related business
Manufacturer
Planet
Mission
Operational Commercial Imaging
Bus & Motor
CUBESAT 3U, Unknown motor
Mass
5.7 kg wet, 5.7 kg dry
Launch date (UTC)
2025-11-28 (4 months ago)
Launch vehicle
FALCON 9
Launch site
Air Force Western Test Range (AFWTR)
Object type
Payload
Rocket body
Debris
Shape & HBR
Box + 2 Pan, 1.0 m
Radar Cross Section
0.072 m²

Expand to show TLE details & history
Last TLE update: 8 hours ago

TLE from 8 hours ago
0 FLOCK 4H 35
1 66738U 25276CA  26095.23440226  .00008458  00000-0  39715-3 0  9990
2 66738  97.4228 170.1689 0002580 149.1380 211.0007 15.19870649 18647
Epoch: 2026-04-05T05:37Z
TLE epoch observation values (Epoch: 2026-04-05T05:37:32.355Z)
Latitude
-0.00002°
Longitude
-107.75866°
Altitude
510.844 km
Speed
7.608 km/s
True Right ascension
11h 20m 40s
True Declination
0° 00' 00"
Sunlit
Object was in full shadow at epoch
Visualization orbit readout
Latitude
Unknown
Longitude
Unknown
Altitude
Unknown
Speed
Unknown
Apparent Right ascension
Unknown
Apparent Declination
Unknown
Sunlit
N/A
Visualization observer readout
Local Sidereal Time
19:18:50
Azimuth
Unknown
Elevation
Unknown
Doppler factor
Unknown
Orbital elements
Apogee altitude
504.973 km
Perigee altitude
501.423 km
Semi-major axis
6,881.335 km
Eccentricity
0.00026
Inclination
97.4228°
RAAN
170.1689°
Arg. of periapsis
149.138°
True anomaly
210.98548°
Mean anomaly
211.0007°
Eccentric anomaly
210.99309°
Mean motion
3.80219 °/min
Orbital period
94.68 mins
BSTAR
0.00039715
Loading maneuver chart data...
Computing Atmospheric mass density...
Loading historical data...
Loading historical data...
Loading historical data...
Loading historical data...
Loading historical data...
Loading historical data...
Loading historical data...

Documentation

Showing up to 5 results
|